EW5043 Weather Reports


time (UTC)temp
C
wind
direction
speed
KPH
gust
KPH
rain 1hr
cm
rain 24hr
cm
rain mn
cm
humidity
%
barometer
mb
20260507050011 7 312 12.9 0.0 0.00 0.00 0.00 100 1011.0
20260507044503 7 315 14.5 0.0 0.00 0.00 0.00 100 1011.1
20260507043053 7 317 16.1 0.0 0.00 0.00 0.00 100 1011.1
20260507041544 7 307 16.1 0.0 0.00 0.00 0.00 100 1010.8
20260507040138 7 304 14.5 0.0 0.00 0.00 0.00 100 1010.8
20260507034627 7 304 12.9 0.0 0.00 0.00 1.42 100 1010.7
20260507033016 7 316 14.5 0.0 0.00 0.00 1.42 100 1010.7
20260507031506 7 309 14.5 0.0 0.00 0.00 1.42 100 1010.5
20260507030058 7 305 9.7 0.0 0.00 0.00 1.42 100 1010.7
20260507024602 6 302 8.0 0.0 0.00 0.00 1.42 100 1010.7
20260507023046 6 298 8.0 0.0 0.00 0.00 1.42 100 1010.6
20260507021533 6 304 8.0 0.0 0.00 0.00 1.42 100 1010.7
20260507020028 6 320 9.7 0.0 0.00 0.00 1.42 100 1010.8
20260507014521 6 327 8.0 0.0 0.00 0.00 1.42 100 1010.9
20260507013103 7 336 8.0 0.0 0.00 0.00 1.42 100 1010.8
20260507011555 8 316 6.4 0.0 0.00 0.00 1.42 100 1010.4
20260507010050 8 315 4.8 0.0 0.00 0.00 1.42 100 1010.3
20260507004639 8 307 3.2 0.0 0.00 0.00 1.42 100 1010.1
20260507003041 8 307 3.2 0.0 0.00 0.00 1.42 100 1009.8
20260507001520 8 307 1.6 0.0 0.00 0.00 1.42 100 1009.8
20260507000010 8 307 3.2 0.0 0.00 0.00 1.42 100 1009.9
20260506234502 7 360 1.6 0.0 0.00 0.00 1.42 100 1009.7
20260506233152 7 360 1.6 0.0 0.00 0.00 1.42 100 1009.4
20260506231543 7 360 1.6 0.0 0.00 0.00 1.42 100 1009.3
20260506230136 7 360 0.0 0.0 0.00 0.00 1.42 100 1009.1
20260506224526 7 360 0.0 0.0 0.00 0.00 1.42 100 1008.8
20260506223017 7 360 0.0 0.0 0.00 0.00 1.42 100 1008.8
20260506221508 7 360 1.6 0.0 0.00 0.00 1.42 100 1009.3
20260506220101 7 360 1.6 0.0 0.00 0.00 1.42 100 1009.0
20260506213057 7 360 0.0 0.0 0.00 0.00 1.42 100 1008.8
20260506211534 7 360 1.6 0.0 0.00 0.00 1.42 100 1008.8
20260506210027 7 360 3.2 0.0 0.00 0.00 1.42 100 1009.0
20260506204515 7 360 3.2 0.0 0.00 0.00 1.42 100 1008.8
20260506203006 7 355 4.8 0.0 0.00 0.00 1.42 100 1008.7
20260506201558 6 351 4.8 0.0 0.00 0.00 1.42 100 1008.6
20260506200149 6 355 6.4 0.0 0.00 0.00 1.42 100 1008.5
20260506194541 6 343 8.0 0.0 0.00 0.00 1.42 100 1008.7
20260506193031 6 355 9.7 0.0 0.00 0.00 1.42 100 1008.8
20260506191522 6 360 9.7 0.0 0.00 0.00 1.42 100 1008.7
20260506190014 6 5 12.9 0.0 0.00 0.00 1.42 100 1008.5
20260506184613 6 5 14.5 0.0 0.00 0.00 1.42 100 1008.4
20260506183153 6 5 12.9 0.0 0.00 0.00 1.42 100 1008.5
20260506181610 6 5 12.9 0.0 0.00 0.00 1.42 100 1008.5
20260506180036 7 44 8.0 0.0 0.00 0.00 1.42 100 1008.2
20260506174526 6 37 12.9 0.0 0.00 0.00 1.42 100 1007.7
20260506173115 6 37 11.3 0.0 0.00 0.00 1.42 100 1007.9
20260506171508 6 37 8.0 0.0 0.00 0.00 1.42 100 1007.9
20260506170058 6 355 9.7 0.0 0.00 0.00 1.42 100 1007.7
20260506164549 6 34 11.3 0.0 0.00 0.00 1.42 100 1007.5
20260506163040 6 355 12.9 0.0 0.00 0.00 1.42 100 1007.5
20260506161530 6 34 11.3 0.0 0.00 0.00 1.42 100 1007.6
20260506160023 6 40 11.3 0.0 0.00 0.00 1.42 100 1007.8
20260506154512 6 43 11.3 0.0 0.00 0.00 1.42 100 1007.7
20260506153114 6 44 8.0 0.0 0.00 0.00 1.42 100 1007.9
20260506151655 6 20 11.3 0.0 0.00 0.00 1.42 100 1007.9
20260506150053 6 25 11.3 0.0 0.00 0.00 1.42 100 1007.6
20260506144537 6 59 11.3 0.0 0.00 0.00 1.42 100 1007.5
20260506143032 6 24 12.9 0.0 0.00 0.00 1.42 100 1007.2
20260506141519 6 53 6.4 0.0 0.00 0.00 1.42 100 1007.4
20260506140112 6 55 6.4 0.0 0.00 0.00 1.42 100 1007.3
20260506133053 7 50 8.0 0.0 0.00 0.00 1.42 100 1007.3
20260506131551 7 86 6.4 0.0 0.00 0.00 1.42 100 1007.3
20260506130037 7 86 4.8 0.0 0.00 0.00 1.42 100 1007.4
20260506124526 7 43 6.4 0.0 0.00 0.00 1.42 100 1007.3
20260506123121 7 44 6.4 0.0 0.00 0.00 1.40 100 1007.5
20260506121508 7 55 4.8 0.0 0.00 0.00 1.40 100 1007.3
20260506114555 7 88 4.8 0.0 0.00 0.00 1.37 100 1007.1
20260506113044 7 66 8.0 0.0 0.00 0.00 1.37 100 1007.1
20260506111533 7 68 8.0 0.0 0.00 0.00 1.35 100 1007.4
20260506110024 7 103 8.0 0.0 0.00 0.00 1.32 100 1007.2
20260506104616 7 58 4.8 0.0 0.00 0.00 1.27 100 1007.7
20260506103106 7 66 1.6 0.0 0.00 0.00 1.17 100 1007.7
20260506101558 7 61 1.6 0.0 0.00 0.00 1.07 100 1007.4
20260506100047 7 83 1.6 0.0 0.00 0.00 1.02 100 1007.1
20260506094540 7 103 0.0 0.0 0.00 0.00 1.02 100 1007.0
20260506093030 7 101 0.0 0.0 0.00 0.00 1.02 100 1006.9
20260506091520 7 120 0.0 0.0 0.00 0.00 0.97 100 1007.1
20260506090019 7 101 0.0 0.0 0.00 0.00 0.94 100 1007.8
20260506083053 7 101 0.0 0.0 0.00 0.00 0.89 100 1007.8
20260506081646 7 101 1.6 0.0 0.00 0.00 0.81 100 1007.7
20260506080136 7 95 6.4 0.0 0.00 0.00 0.76 100 1007.5
20260506073018 7 96 6.4 0.0 0.00 0.00 0.66 100 1007.6
20260506071507 7 113 6.4 0.0 0.00 0.00 0.61 100 1007.7
20260506070104 7 117 8.0 0.0 0.00 0.00 0.51 100 1007.9
20260506061532 8 104 8.0 0.0 0.00 0.00 0.36 100 1008.0
20260506060123 8 70 3.2 0.0 0.00 0.00 0.30 100 1008.5